Time,TemperatureF,DewpointF,PressureIn,WindDirection,WindDirectionDegrees,WindSpeedMPH,WindSpeedGustMPH,Humidity,HourlyPrecipIn,Conditions,Clouds,dailyrainin,SoftwareType,DateUTC
2013-04-20 00:13:00,40.3,31.0,29.84,SSE,148,0.0,3.0,69,0.00,,,0.00,weatherlink.com 1.10,2013-04-20 06:13:00,
2013-04-20 00:28:00,39.8,31.0,29.84,South,183,2.0,4.0,71,0.00,,,0.00,weatherlink.com 1.10,2013-04-20 06:28:00,
2013-04-20 00:44:00,40.5,31.0,29.84,SSE,149,0.0,3.0,69,0.00,,,0.00,weatherlink.com 1.10,2013-04-20 06:44:00,
2013-04-20 00:59:00,40.4,31.0,29.84,SE,140,0.0,1.0,70,0.00,,,0.00,weatherlink.com 1.10,2013-04-20 06:59:00,
2013-04-20 01:14:00,40.1,32.0,29.83,West,280,0.0,3.0,72,0.00,,,0.00,weatherlink.com 1.10,2013-04-20 07:14:00,
2013-04-20 01:29:00,39.4,32.0,29.83,NE,49,0.0,2.0,74,0.00,,,0.00,weatherlink.com 1.10,2013-04-20 07:29:00,
2013-04-20 01:44:00,38.9,32.0,29.83,South,169,0.0,2.0,76,0.00,,,0.00,weatherlink.com 1.10,2013-04-20 07:44:00,
2013-04-20 01:59:00,38.6,32.0,29.82,SSW,200,0.0,1.0,77,0.00,,,0.00,weatherlink.com 1.10,2013-04-20 07:59:00,
2013-04-20 02:14:00,38.6,32.0,29.82,SE,129,0.0,1.0,77,0.00,,,0.00,weatherlink.com 1.10,2013-04-20 08:14:00,
2013-04-20 02:29:00,38.5,32.0,29.81,SE,130,0.0,1.0,78,0.00,,,0.00,weatherlink.com 1.10,2013-04-20 08:29:00,
2013-04-20 02:44:00,38.3,33.0,29.81,SE,127,0.0,1.0,80,0.00,,,0.00,weatherlink.com 1.10,2013-04-20 08:44:00,
2013-04-20 02:59:00,38.0,32.0,29.80,East,101,0.0,1.0,80,0.00,,,0.00,weatherlink.com 1.10,2013-04-20 08:59:00,
2013-04-20 03:14:00,37.6,32.0,29.80,NE,54,0.0,2.0,81,0.00,,,0.00,weatherlink.com 1.10,2013-04-20 09:14:00,
2013-04-20 03:29:00,37.5,32.0,29.80,NNW,338,1.0,2.0,81,0.00,,,0.00,weatherlink.com 1.10,2013-04-20 09:29:00,
2013-04-20 03:44:00,37.3,32.0,29.80,South,171,0.0,3.0,81,0.00,,,0.00,weatherlink.com 1.10,2013-04-20 09:44:00,
2013-04-20 03:59:00,37.3,32.0,29.80,East,101,1.0,2.0,82,0.00,,,0.00,weatherlink.com 1.10,2013-04-20 09:59:00,
2013-04-20 04:14:00,37.4,32.0,29.79,ESE,114,0.0,2.0,81,0.00,,,0.00,weatherlink.com 1.10,2013-04-20 10:14:00,
2013-04-20 04:29:00,37.6,32.0,29.79,SSE,165,0.0,2.0,80,0.00,,,0.00,weatherlink.com 1.10,2013-04-20 10:29:00,
2013-04-20 04:44:00,37.5,32.0,29.79,SSE,158,0.0,1.0,81,0.00,,,0.00,weatherlink.com 1.10,2013-04-20 10:44:00,
2013-04-20 04:59:00,37.2,32.0,29.78,SSE,152,0.0,1.0,81,0.00,,,0.00,weatherlink.com 1.10,2013-04-20 10:59:00,
2013-04-20 05:14:00,36.7,31.0,29.78,SE,132,0.0,1.0,81,0.00,,,0.00,weatherlink.com 1.10,2013-04-20 11:14:00,
2013-04-20 05:29:00,35.2,31.0,29.79,SE,131,0.0,1.0,83,0.00,,,0.00,weatherlink.com 1.10,2013-04-20 11:29:00,
2013-04-20 05:44:00,35.0,31.0,29.78,North,358,0.0,3.0,84,0.00,,,0.00,weatherlink.com 1.10,2013-04-20 11:44:00,
2013-04-20 05:59:00,33.3,28.0,29.78,NNE,30,0.0,2.0,82,0.00,,,0.00,weatherlink.com 1.10,2013-04-20 11:59:00,
2013-04-20 06:14:00,-999.0,-99.9,29.78,North,-999,-999.0,-999.0,-999,0.00,,,0.00,weatherlink.com 1.10,2013-04-20 12:14:00,
2013-04-20 06:29:00,-999.0,-99.9,29.78,North,-999,-999.0,-999.0,-999,0.00,,,0.00,weatherlink.com 1.10,2013-04-20 12:29:00,
2013-04-20 06:44:00,-999.0,-99.9,29.77,North,-999,-999.0,-999.0,-999,0.00,,,0.00,weatherlink.com 1.10,2013-04-20 12:44:00,
2013-04-20 07:00:00,-999.0,-99.9,29.78,North,-999,-999.0,-999.0,-999,0.00,,,0.00,weatherlink.com 1.10,2013-04-20 13:00:00,
2013-04-20 07:15:00,37.9,33.0,29.77,ESE,123,0.0,1.0,81,0.00,,,0.00,weatherlink.com 1.10,2013-04-20 13:15:00,
2013-04-20 07:30:00,39.1,34.0,29.78,SE,125,0.0,1.0,81,0.00,,,0.00,weatherlink.com 1.10,2013-04-20 13:30:00,
2013-04-20 07:45:00,41.3,35.0,29.78,SE,146,0.0,1.0,77,0.00,,,0.00,weatherlink.com 1.10,2013-04-20 13:45:00,
2013-04-20 08:00:00,45.4,35.0,29.78,SSE,157,0.0,1.0,67,0.00,,,0.00,weatherlink.com 1.10,2013-04-20 14:00:00,
2013-04-20 08:15:00,47.1,35.0,29.78,SE,141,0.0,1.0,64,0.00,,,0.00,weatherlink.com 1.10,2013-04-20 14:15:00,
2013-04-20 08:30:00,48.5,35.0,29.78,WSW,238,0.0,1.0,59,0.00,,,0.00,weatherlink.com 1.10,2013-04-20 14:30:00,
2013-04-20 08:45:00,46.0,34.0,29.78,WNW,290,0.0,1.0,63,0.00,,,0.00,weatherlink.com 1.10,2013-04-20 14:45:00,
2013-04-20 09:00:00,47.8,35.0,29.78,WNW,298,2.0,2.0,61,0.00,,,0.00,weatherlink.com 1.10,2013-04-20 15:00:00,
2013-04-20 09:15:00,49.6,35.0,29.78,NNW,336,0.0,3.0,58,0.00,,,0.00,weatherlink.com 1.10,2013-04-20 15:15:00,
2013-04-20 09:30:00,50.0,34.0,29.78,WNW,294,2.0,5.0,55,0.00,,,0.00,weatherlink.com 1.10,2013-04-20 15:30:00,
2013-04-20 09:45:00,51.3,36.0,29.78,WNW,285,2.0,4.0,57,0.00,,,0.00,weatherlink.com 1.10,2013-04-20 15:45:00,
2013-04-20 10:00:00,51.6,37.0,29.79,West,269,5.0,9.0,57,0.00,,,0.00,weatherlink.com 1.10,2013-04-20 16:00:00,
2013-04-20 10:15:00,52.2,36.0,29.78,WNW,302,4.0,8.0,54,0.00,,,0.00,weatherlink.com 1.10,2013-04-20 16:15:00,
2013-04-20 10:30:00,52.3,35.0,29.79,NW,316,5.0,11.0,52,0.00,,,0.00,weatherlink.com 1.10,2013-04-20 16:30:00,
2013-04-20 10:45:00,53.4,35.0,29.79,WNW,291,6.0,13.0,51,0.00,,,0.00,weatherlink.com 1.10,2013-04-20 16:45:00,
2013-04-20 11:00:00,52.4,34.0,29.79,NNW,328,8.0,12.0,50,0.00,,,0.00,weatherlink.com 1.10,2013-04-20 17:00:00,
2013-04-20 11:15:00,51.8,35.0,29.79,WNW,298,6.0,14.0,53,0.00,,,0.00,weatherlink.com 1.10,2013-04-20 17:15:00,
2013-04-20 11:30:00,53.7,35.0,29.79,WNW,285,6.0,10.0,50,0.00,,,0.00,weatherlink.com 1.10,2013-04-20 17:30:00,
2013-04-20 11:45:00,54.9,35.0,29.78,NW,322,11.0,12.0,48,0.00,,,0.00,weatherlink.com 1.10,2013-04-20 17:45:00,
2013-04-20 12:00:00,53.4,33.0,29.78,WSW,243,1.0,9.0,47,0.00,,,0.00,weatherlink.com 1.10,2013-04-20 18:00:00,
2013-04-20 12:15:00,55.7,34.0,29.77,NW,304,7.0,12.0,45,0.00,,,0.00,weatherlink.com 1.10,2013-04-20 18:15:00,
2013-04-20 12:30:00,56.3,33.0,29.77,NNW,333,6.0,9.0,41,0.00,,,0.00,weatherlink.com 1.10,2013-04-20 18:30:00,
2013-04-20 12:45:00,56.3,33.0,29.77,WNW,295,7.0,13.0,42,0.00,,,0.00,weatherlink.com 1.10,2013-04-20 18:45:00,
2013-04-20 13:01:00,57.5,35.0,29.77,West,269,7.0,11.0,43,0.00,,,0.00,weatherlink.com 1.10,2013-04-20 19:01:00,
2013-04-20 13:15:00,55.4,34.0,29.76,NE,44,3.0,9.0,45,0.00,,,0.00,weatherlink.com 1.10,2013-04-20 19:15:00,
2013-04-20 13:31:00,56.0,34.0,29.76,NNE,13,0.0,10.0,44,0.00,,,0.00,weatherlink.com 1.10,2013-04-20 19:31:00,
2013-04-20 13:46:00,57.9,35.0,29.76,West,281,6.0,9.0,43,0.00,,,0.00,weatherlink.com 1.10,2013-04-20 19:46:00,
2013-04-20 14:01:00,56.8,35.0,29.75,WSW,252,4.0,10.0,44,0.00,,,0.00,weatherlink.com 1.10,2013-04-20 20:01:00,
2013-04-20 14:16:00,56.8,35.0,29.75,NW,307,4.0,7.0,44,0.00,,,0.00,weatherlink.com 1.10,2013-04-20 20:16:00,
2013-04-20 14:31:00,57.4,35.0,29.75,WSW,240,7.0,8.0,44,0.00,,,0.00,weatherlink.com 1.10,2013-04-20 20:31:00,
2013-04-20 14:46:00,58.7,35.0,29.75,West,271,3.0,8.0,41,0.00,,,0.00,weatherlink.com 1.10,2013-04-20 20:46:00,
2013-04-20 15:01:00,57.8,36.0,29.74,SW,219,3.0,6.0,44,0.00,,,0.00,weatherlink.com 1.10,2013-04-20 21:01:00,
2013-04-20 15:16:00,57.9,36.0,29.74,WNW,301,1.0,6.0,44,0.00,,,0.00,weatherlink.com 1.10,2013-04-20 21:16:00,
2013-04-20 15:31:00,57.8,35.0,29.73,NNW,332,5.0,7.0,43,0.00,,,0.00,weatherlink.com 1.10,2013-04-20 21:31:00,
2013-04-20 15:46:00,58.5,36.0,29.73,WNW,285,5.0,9.0,43,0.00,,,0.00,weatherlink.com 1.10,2013-04-20 21:46:00,
2013-04-20 16:01:00,57.3,35.0,29.73,NE,52,2.0,8.0,43,0.00,,,0.00,weatherlink.com 1.10,2013-04-20 22:01:00,
2013-04-20 16:16:00,57.4,35.0,29.73,WSW,256,2.0,5.0,44,0.00,,,0.00,weatherlink.com 1.10,2013-04-20 22:16:00,
2013-04-20 16:31:00,62.6,36.0,29.72,WNW,299,1.0,4.0,38,0.00,,,0.00,weatherlink.com 1.10,2013-04-20 22:31:00,
2013-04-20 16:46:00,62.0,35.0,29.72,West,271,1.0,4.0,36,0.00,,,0.00,weatherlink.com 1.10,2013-04-20 22:46:00,
2013-04-20 17:01:00,62.9,35.0,29.72,West,271,1.0,16.0,35,0.00,,,0.00,weatherlink.com 1.10,2013-04-20 23:01:00,
2013-04-20 17:16:00,59.3,35.0,29.72,WNW,284,0.0,4.0,40,0.00,,,0.00,weatherlink.com 1.10,2013-04-20 23:16:00,
2013-04-20 17:31:00,58.7,34.0,29.72,West,281,1.0,3.0,40,0.00,,,0.00,weatherlink.com 1.10,2013-04-20 23:31:00,
2013-04-20 17:46:00,57.5,34.0,29.73,SW,232,2.0,3.0,42,0.00,,,0.00,weatherlink.com 1.10,2013-04-20 23:46:00,
2013-04-20 18:01:00,55.9,35.0,29.73,SSW,198,1.0,4.0,46,0.00,,,0.00,weatherlink.com 1.10,2013-04-21 00:01:00,
2013-04-20 18:16:00,55.1,35.0,29.72,SW,217,1.0,2.0,47,0.00,,,0.00,weatherlink.com 1.10,2013-04-21 00:16:00,
2013-04-20 18:31:00,55.3,34.0,29.73,WSW,246,0.0,2.0,45,0.00,,,0.00,weatherlink.com 1.10,2013-04-21 00:31:00,
2013-04-20 18:46:00,55.0,34.0,29.72,SW,224,0.0,2.0,46,0.00,,,0.00,weatherlink.com 1.10,2013-04-21 00:46:00,
2013-04-20 19:01:00,54.5,35.0,29.73,WSW,238,0.0,1.0,48,0.00,,,0.00,weatherlink.com 1.10,2013-04-21 01:01:00,
2013-04-20 19:16:00,54.1,36.0,29.73,West,259,0.0,1.0,50,0.00,,,0.00,weatherlink.com 1.10,2013-04-21 01:16:00,
2013-04-20 19:31:00,51.2,38.0,29.76,WSW,240,6.0,15.0,61,0.00,,,0.00,weatherlink.com 1.10,2013-04-21 01:31:00,
2013-04-20 19:46:00,47.7,39.0,29.76,WSW,256,1.0,6.0,73,0.04,,,0.04,weatherlink.com 1.10,2013-04-21 01:46:00,
2013-04-20 20:01:00,47.1,38.0,29.75,WNW,290,1.0,2.0,72,0.04,,,0.04,weatherlink.com 1.10,2013-04-21 02:01:00,
2013-04-20 20:16:00,46.9,38.0,29.77,WSW,243,2.0,3.0,71,0.04,,,0.04,weatherlink.com 1.10,2013-04-21 02:16:00,
2013-04-20 20:31:00,46.3,38.0,29.77,West,278,2.0,3.0,72,0.02,,,0.04,weatherlink.com 1.10,2013-04-21 02:31:00,
2013-04-20 20:46:00,46.7,38.0,29.78,SSW,210,2.0,4.0,72,0.00,,,0.04,weatherlink.com 1.10,2013-04-21 02:46:00,
2013-04-20 21:01:00,46.0,39.0,29.78,SW,217,1.0,2.0,76,0.00,,,0.04,weatherlink.com 1.10,2013-04-21 03:01:00,
2013-04-20 21:16:00,45.1,38.0,29.79,SW,236,0.0,2.0,77,0.00,,,0.04,weatherlink.com 1.10,2013-04-21 03:16:00,
2013-04-20 21:31:00,44.6,38.0,29.79,SW,236,0.0,1.0,79,0.00,,,0.04,weatherlink.com 1.10,2013-04-21 03:31:00,
2013-04-20 21:46:00,43.7,38.0,29.79,SW,236,0.0,0.0,80,0.00,,,0.04,weatherlink.com 1.10,2013-04-21 03:46:00,
2013-04-20 22:01:00,44.1,38.0,29.79,SSW,203,0.0,1.0,79,0.00,,,0.04,weatherlink.com 1.10,2013-04-21 04:01:00,
2013-04-20 22:16:00,44.9,37.0,29.79,SSW,210,1.0,3.0,74,0.00,,,0.04,weatherlink.com 1.10,2013-04-21 04:16:00,
2013-04-20 22:31:00,45.1,37.0,29.79,SSW,203,1.0,3.0,73,0.00,,,0.04,weatherlink.com 1.10,2013-04-21 04:31:00,
2013-04-20 22:46:00,44.3,37.0,29.79,SSW,194,0.0,3.0,76,0.00,,,0.04,weatherlink.com 1.10,2013-04-21 04:46:00,
2013-04-20 23:01:00,43.4,37.0,29.79,WSW,249,2.0,2.0,77,0.00,,,0.04,weatherlink.com 1.10,2013-04-21 05:01:00,
2013-04-20 23:16:00,43.3,37.0,29.79,West,270,1.0,3.0,77,0.00,,,0.04,weatherlink.com 1.10,2013-04-21 05:16:00,
2013-04-20 23:31:00,43.9,36.0,29.79,WSW,238,2.0,4.0,75,0.00,,,0.04,weatherlink.com 1.10,2013-04-21 05:31:00,
2013-04-20 23:46:00,43.7,37.0,29.79,WSW,252,1.0,5.0,76,0.00,,,0.04,weatherlink.com 1.10,2013-04-21 05:46:00,